{"data":{"norad_id":39500,"intl_designator":"2014-002A","name":"THAICOM 6","alt_names":[],"object_type":"PAYLOAD","status":"ACTIVE","operator":null,"country":"THAI","launch_date":"2014-01-06","launch_site_code":"AFETR","launch_vehicle":null,"mission":null,"orbit_class":"UNKNOWN","rcs_meters":12.5893,"size_class":null,"mass_kg":null,"dimensions":null,"purposes":["comms"],"wikipedia_slug":null,"has_3d_model":false,"image_url":null,"decayed_at":null,"tle_current":{"epoch":"2026-09-20T03:36:33.458400Z","epoch_age_seconds":52177,"freshness":"FRESH","line1":"1 39500U 14002A   26263.15038725 -.00000126  00000+0  00000+0 0  9992","line2":"2 39500   0.0474 116.2783 0003575  38.1113 337.3319  1.00273399 46417","mean_motion":1.00273399,"eccentricity":0.0003575,"inclination_deg":0.0474,"raan_deg":116.2783,"arg_perigee_deg":38.1113,"mean_anomaly_deg":337.3319,"bstar":0,"rev_number":4641,"period_min":1436.0737886226,"perigee_km":35771.068774547,"apogee_km":35801.216234393,"semimajor_km":42164.27950447,"source":"CELESTRAK","updated_at":"2026-09-20T09:00:35.208580Z"}}}